Time,TemperatureF,DewpointF,PressureIn,WindDirection,WindDirectionDegrees,WindSpeedMPH,WindSpeedGustMPH,Humidity,HourlyPrecipIn,Conditions,Clouds,dailyrainin,SoftwareType,DateUTC
2013-02-23 00:00:00,72.6,69.2,30.06,South,177,0.0,4.0,89,0.00,,CLR,0.00,VWS V14.01,2013-02-23 05:00:00,
2013-02-23 00:01:00,72.6,69.2,30.05,South,177,0.0,0.0,89,0.00,,FEW018,0.00,VWS V14.01,2013-02-23 05:01:00,
2013-02-23 00:06:00,72.5,69.1,30.05,South,177,0.0,1.0,89,0.00,,FEW018,0.00,VWS V14.01,2013-02-23 05:06:00,
2013-02-23 00:11:00,72.4,69.0,30.06,South,177,0.0,4.0,89,0.00,,FEW018,0.00,VWS V14.01,2013-02-23 05:11:00,
2013-02-23 00:16:00,72.3,68.9,30.05,South,177,3.0,4.0,89,0.00,,FEW018,0.00,VWS V14.01,2013-02-23 05:16:00,
2013-02-23 00:21:00,72.3,68.9,30.05,South,186,1.0,4.0,89,0.00,,FEW018,0.00,VWS V14.01,2013-02-23 05:21:00,
2013-02-23 00:26:00,72.2,68.8,30.05,South,185,3.0,5.0,89,0.00,,FEW018,0.00,VWS V14.01,2013-02-23 05:26:00,
2013-02-23 00:31:00,72.1,68.7,30.05,SSW,192,4.0,5.0,89,0.00,,FEW018,0.00,VWS V14.01,2013-02-23 05:31:00,
2013-02-23 00:36:00,72.0,68.9,30.04,South,180,3.0,5.0,90,0.00,,FEW018,0.00,VWS V14.01,2013-02-23 05:36:00,
2013-02-23 00:41:00,72.0,68.9,30.04,South,180,0.0,5.0,90,0.00,,FEW018,0.00,VWS V14.01,2013-02-23 05:41:00,
2013-02-23 00:46:00,71.9,68.8,30.04,South,171,0.0,5.0,90,0.00,,FEW018,0.00,VWS V14.01,2013-02-23 05:46:00,
2013-02-23 00:51:00,71.9,68.8,30.03,South,169,2.0,6.0,90,0.00,,FEW018,0.00,VWS V14.01,2013-02-23 05:51:00,
2013-02-23 00:56:00,71.8,68.7,30.04,South,171,4.0,7.0,90,0.00,,FEW018,0.00,VWS V14.01,2013-02-23 05:56:00,
2013-02-23 01:01:00,71.7,68.6,30.03,SSE,165,2.0,4.0,90,0.00,,CLR,0.00,VWS V14.01,2013-02-23 06:01:00,
2013-02-23 01:06:00,71.7,68.6,30.04,South,171,2.0,4.0,90,0.00,,CLR,0.00,VWS V14.01,2013-02-23 06:06:00,
2013-02-23 01:11:00,71.7,68.6,30.04,South,170,0.0,4.0,90,0.00,,CLR,0.00,VWS V14.01,2013-02-23 06:11:00,
2013-02-23 01:16:00,71.7,68.6,30.05,South,170,0.0,4.0,90,0.00,,CLR,0.00,VWS V14.01,2013-02-23 06:16:00,
2013-02-23 01:21:00,71.6,68.5,30.03,South,171,3.0,4.0,90,0.00,,CLR,0.00,VWS V14.01,2013-02-23 06:21:00,
2013-02-23 01:26:00,71.5,68.4,30.03,South,171,0.0,4.0,90,0.00,,CLR,0.00,VWS V14.01,2013-02-23 06:26:00,
2013-02-23 01:31:00,71.5,68.7,30.04,South,170,0.0,4.0,91,0.00,,CLR,0.00,VWS V14.01,2013-02-23 06:31:00,
2013-02-23 01:36:00,71.4,68.6,30.03,South,171,1.0,4.0,91,0.00,,CLR,0.00,VWS V14.01,2013-02-23 06:36:00,
2013-02-23 01:41:00,71.4,68.3,30.03,South,170,0.0,4.0,90,0.00,,CLR,0.00,VWS V14.01,2013-02-23 06:41:00,
2013-02-23 01:46:00,71.4,68.6,30.04,South,171,0.0,4.0,91,0.00,,CLR,0.00,VWS V14.01,2013-02-23 06:46:00,
2013-02-23 01:51:00,71.3,68.2,30.03,South,171,0.0,4.0,90,0.00,,CLR,0.00,VWS V14.01,2013-02-23 06:51:00,
2013-02-23 01:56:00,71.3,68.2,30.02,South,171,0.0,4.0,90,0.00,,CLR,0.00,VWS V14.01,2013-02-23 06:56:00,
2013-02-23 02:01:00,71.2,68.1,30.02,South,171,0.0,0.0,90,0.00,,SCT019,0.00,VWS V14.01,2013-02-23 07:01:00,
2013-02-23 02:06:00,71.2,68.1,30.02,South,171,0.0,0.0,90,0.00,,BKN019,0.00,VWS V14.01,2013-02-23 07:06:00,
2013-02-23 02:11:00,71.1,68.3,30.02,South,171,0.0,1.0,91,0.00,,BKN019,0.00,VWS V14.01,2013-02-23 07:11:00,
2013-02-23 02:16:00,71.0,67.9,30.01,South,171,0.0,1.0,90,0.00,,BKN019,0.00,VWS V14.01,2013-02-23 07:16:00,
2013-02-23 02:21:00,71.0,68.2,30.01,South,171,1.0,1.0,91,0.00,,SCT030,0.00,VWS V14.01,2013-02-23 07:21:00,
2013-02-23 02:26:00,71.0,68.2,30.01,South,171,0.0,2.0,91,0.00,,SCT030,0.00,VWS V14.01,2013-02-23 07:26:00,
2013-02-23 02:31:00,71.0,68.2,30.01,South,171,0.0,3.0,91,0.00,,SCT030,0.00,VWS V14.01,2013-02-23 07:31:00,
2013-02-23 02:36:00,70.9,68.2,30.01,South,171,0.0,3.0,91,0.00,,SCT030,0.00,VWS V14.01,2013-02-23 07:36:00,
2013-02-23 02:41:00,70.9,68.2,30.01,South,171,0.0,3.0,91,0.00,,SCT030,0.00,VWS V14.01,2013-02-23 07:41:00,
2013-02-23 02:46:00,70.9,68.2,30.01,South,170,0.0,3.0,91,0.00,,SCT030,0.00,VWS V14.01,2013-02-23 07:46:00,
2013-02-23 02:51:00,70.9,68.2,30.01,South,171,0.0,3.0,91,0.00,,SCT030,0.00,VWS V14.01,2013-02-23 07:51:00,
2013-02-23 02:56:00,70.9,68.2,30.00,South,171,0.0,3.0,91,0.00,,SCT030,0.00,VWS V14.01,2013-02-23 07:56:00,
2013-02-23 03:01:00,70.8,68.1,30.00,South,171,0.0,0.0,91,0.00,,CLR,0.00,VWS V14.01,2013-02-23 08:01:00,
2013-02-23 03:06:00,70.8,68.1,30.00,South,171,0.0,1.0,91,0.00,,CLR,0.00,VWS V14.01,2013-02-23 08:06:00,
2013-02-23 03:11:00,70.7,67.9,30.00,South,171,0.0,1.0,91,0.00,,CLR,0.00,VWS V14.01,2013-02-23 08:11:00,
2013-02-23 03:16:00,70.6,67.8,30.00,South,171,0.0,2.0,91,0.00,,CLR,0.00,VWS V14.01,2013-02-23 08:16:00,
2013-02-23 03:21:00,70.6,67.8,30.00,South,171,0.0,2.0,91,0.00,,CLR,0.00,VWS V14.01,2013-02-23 08:21:00,
2013-02-23 03:26:00,70.6,67.8,30.00,South,170,0.0,2.0,91,0.00,,CLR,0.00,VWS V14.01,2013-02-23 08:26:00,
2013-02-23 03:31:00,70.5,67.8,30.00,South,171,0.0,2.0,91,0.00,,CLR,0.00,VWS V14.01,2013-02-23 08:31:00,
2013-02-23 03:36:00,70.4,67.7,30.00,South,170,0.0,2.0,91,0.00,,CLR,0.00,VWS V14.01,2013-02-23 08:36:00,
2013-02-23 03:41:00,70.3,67.6,29.99,South,171,0.0,2.0,91,0.00,,CLR,0.00,VWS V14.01,2013-02-23 08:41:00,
2013-02-23 03:46:00,70.3,67.6,30.00,South,171,0.0,2.0,91,0.00,,CLR,0.00,VWS V14.01,2013-02-23 08:46:00,
2013-02-23 03:51:00,70.1,67.4,30.00,South,170,0.0,2.0,91,0.00,,CLR,0.00,VWS V14.01,2013-02-23 08:51:00,
2013-02-23 03:56:00,69.9,66.8,30.00,South,171,0.0,2.0,90,0.00,,CLR,0.00,VWS V14.01,2013-02-23 08:56:00,
2013-02-23 04:01:00,69.8,66.7,29.99,South,171,0.0,0.0,90,0.00,,CLR,0.00,VWS V14.01,2013-02-23 09:01:00,
2013-02-23 04:06:00,69.5,66.4,29.99,South,171,0.0,0.0,90,0.00,,CLR,0.00,VWS V14.01,2013-02-23 09:06:00,
2013-02-23 04:11:00,69.2,66.2,30.00,South,171,0.0,0.0,90,0.00,,CLR,0.00,VWS V14.01,2013-02-23 09:11:00,
2013-02-23 04:16:00,69.0,65.9,30.00,South,170,0.0,0.0,90,0.00,,CLR,0.00,VWS V14.01,2013-02-23 09:16:00,
2013-02-23 04:21:00,68.9,65.8,30.00,South,170,0.0,0.0,90,0.00,,CLR,0.00,VWS V14.01,2013-02-23 09:21:00,
2013-02-23 04:26:00,68.8,65.8,30.00,South,171,0.0,0.0,90,0.00,,CLR,0.00,VWS V14.01,2013-02-23 09:26:00,
2013-02-23 04:31:00,68.7,65.7,30.00,South,170,0.0,0.0,90,0.00,,CLR,0.00,VWS V14.01,2013-02-23 09:31:00,
2013-02-23 04:36:00,68.6,65.6,30.00,South,171,0.0,0.0,90,0.00,,CLR,0.00,VWS V14.01,2013-02-23 09:36:00,
2013-02-23 04:41:00,68.5,65.5,30.00,South,171,0.0,0.0,90,0.00,,CLR,0.00,VWS V14.01,2013-02-23 09:41:00,
2013-02-23 04:46:00,68.4,65.0,30.00,South,171,0.0,0.0,89,0.00,,CLR,0.00,VWS V14.01,2013-02-23 09:46:00,
2013-02-23 04:51:00,68.3,64.9,30.00,South,171,0.0,0.0,89,0.00,,CLR,0.00,VWS V14.01,2013-02-23 09:51:00,
2013-02-23 04:56:00,68.1,64.7,30.00,South,170,0.0,0.0,89,0.00,,CLR,0.00,VWS V14.01,2013-02-23 09:56:00,
2013-02-23 05:01:00,68.0,64.6,30.00,South,170,0.0,0.0,89,0.00,,CLR,0.00,VWS V14.01,2013-02-23 10:01:00,
2013-02-23 05:06:00,67.9,64.5,30.00,South,170,0.0,0.0,89,0.00,,CLR,0.00,VWS V14.01,2013-02-23 10:06:00,
2013-02-23 05:11:00,67.8,64.8,30.00,South,170,0.0,0.0,90,0.00,,CLR,0.00,VWS V14.01,2013-02-23 10:11:00,
2013-02-23 05:16:00,67.7,64.7,30.00,South,171,0.0,0.0,90,0.00,,CLR,0.00,VWS V14.01,2013-02-23 10:16:00,
2013-02-23 05:21:00,67.6,64.6,30.01,South,171,0.0,1.0,90,0.00,,CLR,0.00,VWS V14.01,2013-02-23 10:21:00,
2013-02-23 05:26:00,67.7,65.0,30.00,South,170,0.0,1.0,91,0.00,,CLR,0.00,VWS V14.01,2013-02-23 10:26:00,
2013-02-23 05:31:00,67.7,65.0,30.00,South,171,0.0,1.0,91,0.00,,BKN026,0.00,VWS V14.01,2013-02-23 10:31:00,
2013-02-23 05:36:00,67.7,65.0,30.00,South,171,0.0,3.0,91,0.00,,BKN026,0.00,VWS V14.01,2013-02-23 10:36:00,
2013-02-23 05:41:00,67.8,65.1,30.00,South,170,2.0,3.0,91,0.00,,BKN026,0.00,VWS V14.01,2013-02-23 10:41:00,
2013-02-23 05:46:00,67.9,65.5,30.00,South,171,1.0,4.0,92,0.00,,BKN026,0.00,VWS V14.01,2013-02-23 10:46:00,
2013-02-23 05:51:00,68.0,65.6,30.00,South,170,0.0,4.0,92,0.00,,BKN026,0.00,VWS V14.01,2013-02-23 10:51:00,
2013-02-23 05:56:00,68.2,66.1,30.01,South,171,2.0,4.0,93,0.00,,BKN026,0.00,VWS V14.01,2013-02-23 10:56:00,
2013-02-23 06:01:00,68.3,66.2,30.00,South,170,2.0,4.0,93,0.00,,BKN028,0.00,VWS V14.01,2013-02-23 11:01:00,
2013-02-23 06:06:00,68.4,66.3,30.00,South,170,2.0,4.0,93,0.00,,BKN028,0.00,VWS V14.01,2013-02-23 11:06:00,
2013-02-23 06:11:00,68.5,66.4,30.01,South,171,3.0,4.0,93,0.00,,SCT026,0.00,VWS V14.01,2013-02-23 11:11:00,
2013-02-23 06:16:00,68.5,66.4,30.00,South,171,1.0,4.0,93,0.00,,SCT026,0.00,VWS V14.01,2013-02-23 11:16:00,
2013-02-23 06:21:00,68.6,66.5,30.00,South,171,0.0,5.0,93,0.00,,SCT026,0.00,VWS V14.01,2013-02-23 11:21:00,
2013-02-23 06:26:00,68.6,66.5,30.01,South,180,3.0,5.0,93,0.00,,SCT026,0.00,VWS V14.01,2013-02-23 11:26:00,
2013-02-23 06:31:00,68.6,66.5,30.01,SSW,201,2.0,5.0,93,0.00,,SCT026,0.00,VWS V14.01,2013-02-23 11:31:00,
2013-02-23 06:36:00,68.6,66.5,30.01,South,177,0.0,5.0,93,0.00,,SCT026,0.00,VWS V14.01,2013-02-23 11:36:00,
2013-02-23 06:41:00,68.6,66.5,30.00,South,177,0.0,5.0,93,0.00,,SCT026,0.00,VWS V14.01,2013-02-23 11:41:00,
2013-02-23 06:46:00,68.5,66.4,30.01,South,177,0.0,5.0,93,0.00,,SCT026,0.00,VWS V14.01,2013-02-23 11:46:00,
2013-02-23 06:51:00,68.6,66.5,30.01,South,177,0.0,5.0,93,0.00,,SCT026,0.00,VWS V14.01,2013-02-23 11:51:00,
2013-02-23 06:56:00,68.5,66.4,30.01,South,177,0.0,5.0,93,0.00,,SCT026,0.00,VWS V14.01,2013-02-23 11:56:00,
2013-02-23 07:01:00,68.4,66.3,30.01,South,183,0.0,0.0,93,0.00,,CLR,0.00,VWS V14.01,2013-02-23 12:01:00,
2013-02-23 07:06:00,68.4,66.0,30.01,SSW,209,0.0,0.0,92,0.00,,CLR,0.00,VWS V14.01,2013-02-23 12:06:00,
2013-02-23 07:11:00,68.3,66.2,30.01,South,185,0.0,4.0,93,0.00,,CLR,0.00,VWS V14.01,2013-02-23 12:11:00,
2013-02-23 07:16:00,68.3,66.2,30.01,South,186,0.0,4.0,93,0.00,,CLR,0.00,VWS V14.01,2013-02-23 12:16:00,
2013-02-23 07:21:00,68.3,66.2,30.01,South,184,0.0,5.0,93,0.00,,CLR,0.00,VWS V14.01,2013-02-23 12:21:00,
2013-02-23 07:26:00,68.3,66.2,30.01,South,184,4.0,7.0,93,0.00,,CLR,0.00,VWS V14.01,2013-02-23 12:26:00,
2013-02-23 07:31:00,68.4,66.6,30.01,SSW,194,1.0,7.0,94,0.00,,CLR,0.00,VWS V14.01,2013-02-23 12:31:00,
2013-02-23 07:36:00,68.5,66.7,30.01,South,170,2.0,7.0,94,0.00,,CLR,0.00,VWS V14.01,2013-02-23 12:36:00,
2013-02-23 07:41:00,68.5,66.7,30.02,SSW,203,2.0,7.0,94,0.00,,CLR,0.00,VWS V14.01,2013-02-23 12:41:00,
2013-02-23 07:46:00,68.6,66.8,30.02,South,181,2.0,7.0,94,0.00,,CLR,0.00,VWS V14.01,2013-02-23 12:46:00,
2013-02-23 07:51:00,68.8,67.0,30.02,SSW,210,3.0,7.0,94,0.00,,CLR,0.00,VWS V14.01,2013-02-23 12:51:00,
2013-02-23 07:56:00,69.0,67.5,30.02,SSW,192,3.0,7.0,95,0.00,,CLR,0.00,VWS V14.01,2013-02-23 12:56:00,
2013-02-23 08:01:00,69.1,67.6,30.02,South,179,7.0,8.0,95,0.00,,CLR,0.00,VWS V14.01,2013-02-23 13:01:00,
2013-02-23 08:06:00,69.3,67.8,30.02,South,188,8.0,8.0,95,0.00,,CLR,0.00,VWS V14.01,2013-02-23 13:06:00,
2013-02-23 08:11:00,69.6,67.8,30.02,South,186,4.0,8.0,94,0.00,,CLR,0.00,VWS V14.01,2013-02-23 13:11:00,
2013-02-23 08:16:00,69.8,68.3,30.02,South,180,7.0,8.0,95,0.00,,CLR,0.00,VWS V14.01,2013-02-23 13:16:00,
2013-02-23 08:21:00,70.1,68.6,30.02,South,191,6.0,8.0,95,0.00,,CLR,0.00,VWS V14.01,2013-02-23 13:21:00,
2013-02-23 08:26:00,70.3,68.8,30.02,South,178,3.0,9.0,95,0.00,,CLR,0.00,VWS V14.01,2013-02-23 13:26:00,
2013-02-23 08:31:00,70.6,69.1,30.02,South,187,6.0,10.0,95,0.00,,CLR,0.00,VWS V14.01,2013-02-23 13:31:00,
2013-02-23 08:36:00,71.0,69.5,30.02,SW,220,3.0,10.0,95,0.01,,CLR,0.01,VWS V14.01,2013-02-23 13:36:00,
2013-02-23 08:41:00,71.3,69.5,30.03,South,185,5.0,10.0,94,0.01,,CLR,0.01,VWS V14.01,2013-02-23 13:41:00,
2013-02-23 08:46:00,71.7,69.6,30.03,SSW,209,4.0,10.0,93,0.01,,CLR,0.01,VWS V14.01,2013-02-23 13:46:00,
2013-02-23 08:51:00,72.1,70.0,30.03,South,185,5.0,10.0,93,0.01,,CLR,0.01,VWS V14.01,2013-02-23 13:51:00,
2013-02-23 08:56:00,72.5,70.1,30.03,South,190,4.0,13.0,92,0.01,,CLR,0.01,VWS V14.01,2013-02-23 13:56:00,
2013-02-23 09:01:00,73.0,70.2,30.02,SW,224,5.0,12.0,91,0.01,,CLR,0.01,VWS V14.01,2013-02-23 14:01:00,
2013-02-23 09:06:00,73.5,70.7,30.03,South,176,10.0,12.0,91,0.01,,CLR,0.01,VWS V14.01,2013-02-23 14:06:00,
2013-02-23 09:11:00,74.0,70.9,30.03,SSW,207,1.0,12.0,90,0.01,,CLR,0.01,VWS V14.01,2013-02-23 14:11:00,
2013-02-23 09:16:00,74.3,70.5,30.03,SSW,196,4.0,14.0,88,0.01,,CLR,0.01,VWS V14.01,2013-02-23 14:16:00,
2013-02-23 09:21:00,74.8,70.7,30.03,South,183,11.0,19.0,87,0.01,,CLR,0.01,VWS V14.01,2013-02-23 14:21:00,
2013-02-23 09:26:00,75.2,70.7,30.02,SSW,210,4.0,19.0,86,0.01,,CLR,0.01,VWS V14.01,2013-02-23 14:26:00,
2013-02-23 09:31:00,75.6,71.1,30.03,South,177,8.0,19.0,86,0.01,,CLR,0.01,VWS V14.01,2013-02-23 14:31:00,
2013-02-23 09:36:00,75.9,71.1,30.03,South,172,9.0,19.0,85,0.01,,CLR,0.01,VWS V14.01,2013-02-23 14:36:00,
2013-02-23 09:41:00,76.4,70.9,30.03,South,182,11.0,19.0,83,0.01,,CLR,0.01,VWS V14.01,2013-02-23 14:41:00,
2013-02-23 09:46:00,76.7,70.8,30.03,SSW,201,5.0,19.0,82,0.01,,CLR,0.01,VWS V14.01,2013-02-23 14:46:00,
2013-02-23 09:51:00,77.1,70.8,30.03,South,180,12.0,19.0,81,0.01,,CLR,0.01,VWS V14.01,2013-02-23 14:51:00,
2013-02-23 09:56:00,77.3,70.3,30.03,South,169,12.0,19.0,79,0.01,,CLR,0.01,VWS V14.01,2013-02-23 14:56:00,
2013-02-23 10:01:00,77.5,70.1,30.03,SSW,209,7.0,16.0,78,0.00,,SCT015,0.01,VWS V14.01,2013-02-23 15:01:00,
2013-02-23 10:06:00,77.7,70.3,30.03,South,189,10.0,16.0,78,0.00,,SCT015,0.01,VWS V14.01,2013-02-23 15:06:00,
2013-02-23 10:11:00,77.9,70.1,30.02,SSE,164,7.0,16.0,77,0.00,,SCT015,0.01,VWS V14.01,2013-02-23 15:11:00,
2013-02-23 10:16:00,78.4,70.6,30.03,SSW,201,6.0,16.0,77,0.00,,SCT015,0.01,VWS V14.01,2013-02-23 15:16:00,
2013-02-23 10:21:00,78.8,70.2,30.03,South,185,11.0,16.0,75,0.00,,SCT015,0.01,VWS V14.01,2013-02-23 15:21:00,
2013-02-23 10:26:00,78.9,69.9,30.03,SSE,166,10.0,16.0,74,0.00,,SCT015,0.01,VWS V14.01,2013-02-23 15:26:00,
2013-02-23 10:31:00,78.9,69.5,30.02,SW,214,6.0,16.0,73,0.00,,SCT015,0.01,VWS V14.01,2013-02-23 15:31:00,
2013-02-23 10:36:00,79.0,69.6,30.02,SSW,205,8.0,16.0,73,0.00,,SCT015,0.01,VWS V14.01,2013-02-23 15:36:00,
2013-02-23 10:41:00,79.3,69.9,30.02,SSW,194,4.0,16.0,73,0.00,,SCT015,0.01,VWS V14.01,2013-02-23 15:41:00,
2013-02-23 10:46:00,79.6,69.8,30.02,SSE,165,12.0,24.0,72,0.00,,SCT015,0.01,VWS V14.01,2013-02-23 15:46:00,
2013-02-23 10:51:00,79.9,69.2,30.02,WSW,238,7.0,24.0,70,0.00,,SCT015,0.01,VWS V14.01,2013-02-23 15:51:00,
2013-02-23 10:56:00,80.2,69.9,30.02,South,183,13.0,24.0,71,0.00,,SCT015,0.01,VWS V14.01,2013-02-23 15:56:00,
2013-02-23 11:01:00,80.6,70.8,30.01,SSW,193,8.0,13.0,72,0.00,,SCT035,0.01,VWS V14.01,2013-02-23 16:01:00,
2013-02-23 11:06:00,81.0,70.3,30.01,South,184,12.0,18.0,70,0.00,,SCT035,0.01,VWS V14.01,2013-02-23 16:06:00,
2013-02-23 11:11:00,81.2,70.5,30.01,WSW,242,10.0,18.0,70,0.00,,SCT035,0.01,VWS V14.01,2013-02-23 16:11:00,
2013-02-23 11:16:00,81.0,69.4,30.01,WSW,237,8.0,18.0,68,0.00,,SCT035,0.01,VWS V14.01,2013-02-23 16:16:00,
2013-02-23 11:21:00,81.0,69.9,30.01,SW,217,6.0,18.0,69,0.00,,SCT035,0.01,VWS V14.01,2013-02-23 16:21:00,
2013-02-23 11:26:00,81.3,69.7,30.01,South,178,9.0,18.0,68,0.00,,SCT035,0.01,VWS V14.01,2013-02-23 16:26:00,
2013-02-23 11:31:00,81.5,69.5,30.01,South,182,8.0,18.0,67,0.00,,SCT035,0.01,VWS V14.01,2013-02-23 16:31:00,
2013-02-23 11:36:00,81.6,69.6,30.00,SSW,203,6.0,18.0,67,0.00,,SCT035,0.01,VWS V14.01,2013-02-23 16:36:00,
2013-02-23 11:41:00,81.6,70.4,30.00,South,187,9.0,18.0,69,0.00,,SCT035,0.01,VWS V14.01,2013-02-23 16:41:00,
2013-02-23 11:46:00,81.6,70.0,30.00,WSW,241,5.0,18.0,68,0.00,,SCT035,0.01,VWS V14.01,2013-02-23 16:46:00,
2013-02-23 11:51:00,81.7,69.7,30.00,SSW,200,7.0,18.0,67,0.00,,SCT035,0.01,VWS V14.01,2013-02-23 16:51:00,
2013-02-23 11:56:00,81.9,69.9,30.00,SW,214,8.0,18.0,67,0.00,,SCT035,0.01,VWS V14.01,2013-02-23 16:56:00,
2013-02-23 12:01:00,82.2,69.7,30.00,SSW,200,6.0,21.0,66,0.00,,SCT039,0.01,VWS V14.01,2013-02-23 17:01:00,
2013-02-23 12:06:00,82.4,69.0,30.00,SW,214,5.0,21.0,64,0.00,,SCT039,0.01,VWS V14.01,2013-02-23 17:06:00,
2013-02-23 12:11:00,82.7,69.3,30.00,South,179,5.0,21.0,64,0.00,,SCT039,0.01,VWS V14.01,2013-02-23 17:11:00,
2013-02-23 12:16:00,83.1,69.7,29.99,SSW,202,4.0,21.0,64,0.00,,SCT039,0.01,VWS V14.01,2013-02-23 17:16:00,
2013-02-23 12:21:00,83.3,69.9,29.99,SW,234,4.0,21.0,64,0.00,,SCT039,0.01,VWS V14.01,2013-02-23 17:21:00,
2013-02-23 12:26:00,83.5,69.6,29.99,South,184,4.0,21.0,63,0.00,,SCT039,0.01,VWS V14.01,2013-02-23 17:26:00,
2013-02-23 12:31:00,83.7,69.8,29.99,SSW,198,3.0,21.0,63,0.00,,SCT039,0.01,VWS V14.01,2013-02-23 17:31:00,
2013-02-23 12:36:00,84.0,70.1,29.99,South,187,10.0,21.0,63,0.00,,SCT039,0.01,VWS V14.01,2013-02-23 17:36:00,
2013-02-23 12:41:00,84.2,69.8,29.98,South,189,4.0,21.0,62,0.00,,SCT039,0.01,VWS V14.01,2013-02-23 17:41:00,
2013-02-23 12:46:00,84.4,70.0,29.98,SSE,168,7.0,21.0,62,0.00,,SCT039,0.01,VWS V14.01,2013-02-23 17:46:00,
2013-02-23 12:51:00,84.6,70.2,29.98,SSW,201,4.0,21.0,62,0.00,,SCT039,0.01,VWS V14.01,2013-02-23 17:51:00,
2013-02-23 12:56:00,84.7,69.3,29.98,South,180,6.0,21.0,60,0.00,,SCT039,0.01,VWS V14.01,2013-02-23 17:56:00,
2013-02-23 13:01:00,84.7,69.3,29.98,SSW,194,5.0,10.0,60,0.00,,SCT042,0.01,VWS V14.01,2013-02-23 18:01:00,
2013-02-23 13:06:00,84.8,69.4,29.97,South,173,7.0,14.0,60,0.00,,SCT042,0.01,VWS V14.01,2013-02-23 18:06:00,
2013-02-23 13:11:00,84.8,69.4,29.98,SW,233,4.0,14.0,60,0.00,,SCT042,0.01,VWS V14.01,2013-02-23 18:11:00,
2013-02-23 13:16:00,84.8,69.9,29.97,WSW,247,4.0,14.0,61,0.00,,SCT042,0.01,VWS V14.01,2013-02-23 18:16:00,
2013-02-23 13:21:00,84.9,70.4,29.97,SSE,164,11.0,16.0,62,0.00,,SCT042,0.01,VWS V14.01,2013-02-23 18:21:00,
2013-02-23 13:26:00,84.8,70.3,29.97,WSW,246,7.0,16.0,62,0.00,,SCT042,0.01,VWS V14.01,2013-02-23 18:26:00,
2013-02-23 13:31:00,84.8,70.3,29.97,SW,228,6.0,16.0,62,0.00,,SCT042,0.01,VWS V14.01,2013-02-23 18:31:00,
2013-02-23 13:36:00,84.7,70.2,29.96,South,176,10.0,16.0,62,0.00,,SCT042,0.01,VWS V14.01,2013-02-23 18:36:00,
2013-02-23 13:41:00,84.8,69.9,29.96,WSW,250,10.0,16.0,61,0.00,,SCT042,0.01,VWS V14.01,2013-02-23 18:41:00,
2013-02-23 13:46:00,85.0,70.1,29.96,WSW,245,4.0,16.0,61,0.00,,SCT042,0.01,VWS V14.01,2013-02-23 18:46:00,
2013-02-23 13:51:00,85.1,70.6,29.96,SSW,193,5.0,16.0,62,0.00,,SCT042,0.01,VWS V14.01,2013-02-23 18:51:00,
2013-02-23 13:56:00,85.2,70.2,29.95,SW,217,2.0,16.0,61,0.00,,SCT042,0.01,VWS V14.01,2013-02-23 18:56:00,
2013-02-23 14:01:00,85.4,70.4,29.95,South,174,3.0,9.0,61,0.00,,SCT044,0.01,VWS V14.01,2013-02-23 19:01:00,
2013-02-23 14:06:00,85.6,68.1,29.95,SW,226,6.0,13.0,56,0.00,,SCT044,0.01,VWS V14.01,2013-02-23 19:06:00,
2013-02-23 14:11:00,85.8,68.3,29.94,SSW,193,5.0,13.0,56,0.00,,SCT044,0.01,VWS V14.01,2013-02-23 19:11:00,
2013-02-23 14:16:00,86.0,68.5,29.95,SW,229,5.0,17.0,56,0.00,,SCT044,0.01,VWS V14.01,2013-02-23 19:16:00,
2013-02-23 14:21:00,86.1,68.6,29.94,SW,235,5.0,17.0,56,0.00,,SCT044,0.01,VWS V14.01,2013-02-23 19:21:00,
2013-02-23 14:26:00,86.2,69.2,29.94,WSW,250,5.0,17.0,57,0.00,,SCT044,0.01,VWS V14.01,2013-02-23 19:26:00,
2013-02-23 14:31:00,86.1,69.6,29.94,SSE,167,4.0,17.0,58,0.00,,SCT044,0.01,VWS V14.01,2013-02-23 19:31:00,
2013-02-23 14:36:00,86.0,68.5,29.94,SW,219,0.0,17.0,56,0.00,,SCT044,0.01,VWS V14.01,2013-02-23 19:36:00,
2013-02-23 14:41:00,85.9,68.4,29.93,SW,229,5.0,17.0,56,0.00,,SCT044,0.01,VWS V14.01,2013-02-23 19:41:00,
2013-02-23 14:46:00,85.7,68.2,29.93,SW,227,4.0,17.0,56,0.00,,SCT044,0.01,VWS V14.01,2013-02-23 19:46:00,
2013-02-23 14:51:00,85.7,68.2,29.93,SSW,203,2.0,17.0,56,0.00,,SCT044,0.01,VWS V14.01,2013-02-23 19:51:00,
2013-02-23 14:56:00,85.7,68.7,29.93,SSW,202,4.0,17.0,57,0.00,,SCT044,0.01,VWS V14.01,2013-02-23 19:56:00,
2013-02-23 15:01:00,85.9,68.4,29.93,SSW,196,2.0,12.0,56,0.00,,FEW060,0.01,VWS V14.01,2013-02-23 20:01:00,
2013-02-23 15:06:00,86.0,69.0,29.93,SW,225,5.0,14.0,57,0.00,,FEW060,0.01,VWS V14.01,2013-02-23 20:06:00,
2013-02-23 15:11:00,85.9,69.4,29.92,WSW,242,4.0,14.0,58,0.00,,FEW060,0.01,VWS V14.01,2013-02-23 20:11:00,
2013-02-23 15:16:00,85.9,69.4,29.92,SW,217,9.0,14.0,58,0.00,,FEW060,0.01,VWS V14.01,2013-02-23 20:16:00,
2013-02-23 15:21:00,86.0,69.0,29.92,WSW,243,7.0,14.0,57,0.00,,FEW060,0.01,VWS V14.01,2013-02-23 20:21:00,
2013-02-23 15:26:00,86.1,69.1,29.92,SSW,201,5.0,14.0,57,0.00,,FEW060,0.01,VWS V14.01,2013-02-23 20:26:00,
2013-02-23 15:31:00,86.2,69.7,29.92,South,172,6.0,14.0,58,0.00,,FEW060,0.01,VWS V14.01,2013-02-23 20:31:00,
2013-02-23 15:36:00,86.3,68.8,29.92,SW,220,7.0,14.0,56,0.00,,FEW060,0.01,VWS V14.01,2013-02-23 20:36:00,
2013-02-23 15:41:00,86.4,68.9,29.92,SW,214,4.0,14.0,56,0.00,,FEW060,0.01,VWS V14.01,2013-02-23 20:41:00,
2013-02-23 15:46:00,86.4,68.9,29.93,SW,235,4.0,14.0,56,0.00,,FEW060,0.01,VWS V14.01,2013-02-23 20:46:00,
2013-02-23 15:51:00,86.5,69.0,29.92,South,173,7.0,14.0,56,0.00,,FEW060,0.01,VWS V14.01,2013-02-23 20:51:00,
2013-02-23 15:56:00,86.5,69.5,29.92,South,178,5.0,14.0,57,0.00,,FEW060,0.01,VWS V14.01,2013-02-23 20:56:00,
2013-02-23 16:01:00,86.4,69.4,29.92,SSW,202,4.0,9.0,57,0.00,,BKN090,0.01,VWS V14.01,2013-02-23 21:01:00,
2013-02-23 16:06:00,86.2,69.7,29.92,SSW,196,4.0,11.0,58,0.00,,BKN090,0.01,VWS V14.01,2013-02-23 21:06:00,
2013-02-23 16:11:00,86.1,69.6,29.92,South,174,7.0,11.0,58,0.00,,BKN090,0.01,VWS V14.01,2013-02-23 21:11:00,
2013-02-23 16:16:00,85.9,69.4,29.91,SW,220,6.0,11.0,58,0.00,,BKN090,0.01,VWS V14.01,2013-02-23 21:16:00,
2013-02-23 16:21:00,85.8,69.3,29.92,SSW,200,4.0,11.0,58,0.00,,BKN090,0.01,VWS V14.01,2013-02-23 21:21:00,
2013-02-23 16:26:00,85.7,68.7,29.91,SW,219,2.0,11.0,57,0.00,,BKN090,0.01,VWS V14.01,2013-02-23 21:26:00,
2013-02-23 16:31:00,85.7,69.2,29.91,South,181,5.0,11.0,58,0.00,,BKN090,0.01,VWS V14.01,2013-02-23 21:31:00,
2013-02-23 16:36:00,85.7,69.2,29.91,SSW,211,6.0,11.0,58,0.00,,BKN090,0.01,VWS V14.01,2013-02-23 21:36:00,
2013-02-23 16:41:00,85.8,69.3,29.91,SSE,158,2.0,11.0,58,0.00,,BKN090,0.01,VWS V14.01,2013-02-23 21:41:00,
2013-02-23 16:46:00,85.7,69.7,29.91,South,185,1.0,11.0,59,0.00,,BKN090,0.01,VWS V14.01,2013-02-23 21:46:00,
2013-02-23 16:51:00,85.6,69.1,29.91,SSW,196,0.0,11.0,58,0.00,,BKN090,0.01,VWS V14.01,2013-02-23 21:51:00,
2013-02-23 16:56:00,85.5,69.6,29.91,SSW,198,3.0,11.0,59,0.00,,BKN090,0.01,VWS V14.01,2013-02-23 21:56:00,
2013-02-23 17:01:00,85.5,69.6,29.91,South,179,6.0,7.0,59,0.00,,SCT055,0.01,VWS V14.01,2013-02-23 22:01:00,
2013-02-23 17:06:00,85.3,69.4,29.90,SSE,164,5.0,8.0,59,0.00,,SCT055,0.01,VWS V14.01,2013-02-23 22:06:00,
2013-02-23 17:11:00,85.2,69.3,29.91,South,188,2.0,8.0,59,0.00,,SCT055,0.01,VWS V14.01,2013-02-23 22:11:00,
2013-02-23 17:16:00,85.2,69.3,29.91,South,170,6.0,8.0,59,0.00,,SCT055,0.01,VWS V14.01,2013-02-23 22:16:00,
2013-02-23 17:21:00,85.1,69.2,29.91,South,172,3.0,8.0,59,0.00,,SCT055,0.01,VWS V14.01,2013-02-23 22:21:00,
2013-02-23 17:26:00,85.1,70.6,29.91,SSE,167,0.0,8.0,62,0.00,,SCT055,0.01,VWS V14.01,2013-02-23 22:26:00,
2013-02-23 17:31:00,85.1,72.0,29.91,SSE,167,0.0,8.0,65,0.00,,SCT055,0.01,VWS V14.01,2013-02-23 22:31:00,
2013-02-23 17:36:00,85.0,71.9,29.90,South,169,1.0,8.0,65,0.00,,SCT055,0.01,VWS V14.01,2013-02-23 22:36:00,
2013-02-23 17:41:00,84.8,72.6,29.91,SE,125,2.0,8.0,67,0.00,,SCT055,0.01,VWS V14.01,2013-02-23 22:41:00,
2013-02-23 17:46:00,84.2,72.5,29.91,SE,143,2.0,8.0,68,0.00,,SCT055,0.01,VWS V14.01,2013-02-23 22:46:00,
2013-02-23 17:51:00,83.6,72.4,29.91,SE,125,0.0,8.0,69,0.00,,SCT055,0.01,VWS V14.01,2013-02-23 22:51:00,
2013-02-23 17:56:00,83.1,72.7,29.91,ESE,119,0.0,8.0,71,0.00,,SCT055,0.01,VWS V14.01,2013-02-23 22:56:00,
2013-02-23 18:01:00,82.7,72.3,29.91,SE,129,0.0,4.0,71,0.00,,BKN060,0.01,VWS V14.01,2013-02-23 23:01:00,
2013-02-23 18:06:00,82.4,72.1,29.91,SE,130,0.0,4.0,71,0.00,,BKN060,0.01,VWS V14.01,2013-02-23 23:06:00,
2013-02-23 18:11:00,82.1,72.2,29.91,SE,130,0.0,4.0,72,0.00,,BKN060,0.01,VWS V14.01,2013-02-23 23:11:00,
2013-02-23 18:16:00,82.0,72.1,29.91,SE,130,0.0,4.0,72,0.00,,BKN060,0.01,VWS V14.01,2013-02-23 23:16:00,
2013-02-23 18:21:00,81.7,72.2,29.92,SE,130,0.0,4.0,73,0.00,,BKN060,0.01,VWS V14.01,2013-02-23 23:21:00,
2013-02-23 18:26:00,81.4,71.9,29.92,SE,130,0.0,4.0,73,0.00,,BKN060,0.01,VWS V14.01,2013-02-23 23:26:00,
2013-02-23 18:31:00,81.1,72.0,29.92,SE,142,0.0,4.0,74,0.00,,BKN060,0.01,VWS V14.01,2013-02-23 23:31:00,
2013-02-23 18:36:00,80.9,71.8,29.92,SE,130,3.0,4.0,74,0.00,,BKN060,0.01,VWS V14.01,2013-02-23 23:36:00,
2013-02-23 18:41:00,80.7,72.4,29.92,SE,131,1.0,4.0,76,0.00,,BKN060,0.01,VWS V14.01,2013-02-23 23:41:00,
2013-02-23 18:46:00,80.5,72.2,29.92,SE,128,0.0,5.0,76,0.00,,BKN060,0.01,VWS V14.01,2013-02-23 23:46:00,
2013-02-23 18:51:00,80.1,72.2,29.92,SE,133,0.0,5.0,77,0.00,,BKN060,0.01,VWS V14.01,2013-02-23 23:51:00,
2013-02-23 18:56:00,79.9,72.1,29.92,SE,133,1.0,5.0,77,0.00,,BKN060,0.01,VWS V14.01,2013-02-23 23:56:00,
2013-02-23 19:01:00,79.8,72.3,29.93,SE,133,0.0,2.0,78,0.00,,SCT100,0.01,VWS V14.01,2013-02-24 00:01:00,
2013-02-23 19:06:00,79.6,72.1,29.93,SE,131,0.0,2.0,78,0.00,,SCT100,0.01,VWS V14.01,2013-02-24 00:06:00,
2013-02-23 19:11:00,79.6,72.5,29.93,SE,130,0.0,2.0,79,0.00,,SCT100,0.01,VWS V14.01,2013-02-24 00:11:00,
2013-02-23 19:16:00,79.5,72.4,29.93,SE,130,1.0,2.0,79,0.00,,SCT100,0.01,VWS V14.01,2013-02-24 00:16:00,
2013-02-23 19:21:00,79.5,72.4,29.94,SSE,157,12.0,14.0,79,0.00,,SCT100,0.01,VWS V14.01,2013-02-24 00:21:00,
2013-02-23 19:26:00,79.0,70.0,29.94,SSE,164,4.0,14.0,74,0.00,,SCT100,0.01,VWS V14.01,2013-02-24 00:26:00,
2013-02-23 19:31:00,78.8,69.4,29.94,South,184,5.0,14.0,73,0.00,,SCT100,0.01,VWS V14.01,2013-02-24 00:31:00,
2013-02-23 19:36:00,78.5,69.1,29.94,South,190,3.0,14.0,73,0.00,,SCT100,0.01,VWS V14.01,2013-02-24 00:36:00,
2013-02-23 19:41:00,78.5,69.1,29.94,South,190,2.0,14.0,73,0.00,,SCT100,0.01,VWS V14.01,2013-02-24 00:41:00,
2013-02-23 19:46:00,78.3,68.9,29.94,South,191,2.0,14.0,73,0.00,,SCT100,0.01,VWS V14.01,2013-02-24 00:46:00,
2013-02-23 19:51:00,78.1,69.1,29.94,SW,217,3.0,14.0,74,0.00,,SCT100,0.01,VWS V14.01,2013-02-24 00:51:00,
2013-02-23 19:56:00,78.0,69.4,29.94,SW,214,1.0,14.0,75,0.00,,SCT100,0.01,VWS V14.01,2013-02-24 00:56:00,
2013-02-23 20:01:00,77.9,69.3,29.95,SSW,209,0.0,1.0,75,0.00,,OVC075,0.01,VWS V14.01,2013-02-24 01:01:00,
2013-02-23 20:06:00,77.8,69.2,29.95,SW,215,1.0,3.0,75,0.00,,OVC075,0.01,VWS V14.01,2013-02-24 01:06:00,
2013-02-23 20:11:00,77.7,69.2,29.95,SW,215,0.0,4.0,75,0.00,,OVC075,0.01,VWS V14.01,2013-02-24 01:11:00,
2013-02-23 20:16:00,77.7,69.2,29.95,SW,215,0.0,4.0,75,0.00,,OVC075,0.01,VWS V14.01,2013-02-24 01:16:00,
2013-02-23 20:21:00,77.6,69.1,29.94,SW,215,0.0,4.0,75,0.00,,OVC075,0.01,VWS V14.01,2013-02-24 01:21:00,
2013-02-23 20:26:00,77.5,69.3,29.95,SW,215,3.0,4.0,76,0.00,,OVC075,0.01,VWS V14.01,2013-02-24 01:26:00,
2013-02-23 20:31:00,77.4,69.2,29.94,SW,215,2.0,4.0,76,0.00,,OVC075,0.01,VWS V14.01,2013-02-24 01:31:00,
2013-02-23 20:36:00,77.3,69.2,29.94,SW,214,0.0,4.0,76,0.00,,OVC075,0.01,VWS V14.01,2013-02-24 01:36:00,
2013-02-23 20:41:00,77.2,69.4,29.94,SSW,213,0.0,4.0,77,0.00,,OVC075,0.01,VWS V14.01,2013-02-24 01:41:00,
2013-02-23 20:46:00,77.1,69.3,29.95,SSW,208,0.0,4.0,77,0.00,,OVC075,0.01,VWS V14.01,2013-02-24 01:46:00,
2013-02-23 20:51:00,77.0,69.2,29.95,SSW,212,0.0,4.0,77,0.00,,OVC075,0.01,VWS V14.01,2013-02-24 01:51:00,
2013-02-23 20:56:00,76.9,69.2,29.95,SW,214,0.0,4.0,77,0.00,,OVC075,0.01,VWS V14.01,2013-02-24 01:56:00,
2013-02-23 21:01:00,76.8,69.1,29.95,SW,214,0.0,0.0,77,0.00,,BKN085,0.01,VWS V14.01,2013-02-24 02:01:00,
2013-02-23 21:06:00,76.7,68.9,29.95,SW,214,0.0,0.0,77,0.00,,BKN085,0.01,VWS V14.01,2013-02-24 02:06:00,
2013-02-23 21:11:00,76.6,69.2,29.95,SW,214,0.0,0.0,78,0.00,,BKN085,0.01,VWS V14.01,2013-02-24 02:11:00,
2013-02-23 21:16:00,76.5,69.1,29.96,SW,214,0.0,0.0,78,0.00,,BKN085,0.01,VWS V14.01,2013-02-24 02:16:00,
2013-02-23 21:21:00,76.3,68.9,29.96,SW,214,0.0,0.0,78,0.00,,BKN085,0.01,VWS V14.01,2013-02-24 02:21:00,
2013-02-23 21:26:00,76.2,68.8,29.95,SW,215,0.0,0.0,78,0.00,,BKN085,0.01,VWS V14.01,2013-02-24 02:26:00,
2013-02-23 21:31:00,76.1,68.8,29.96,SW,215,0.0,0.0,78,0.00,,BKN085,0.01,VWS V14.01,2013-02-24 02:31:00,
2013-02-23 21:36:00,76.0,68.7,29.96,SW,215,0.0,0.0,78,0.00,,BKN085,0.01,VWS V14.01,2013-02-24 02:36:00,
2013-02-23 21:41:00,75.8,68.5,29.96,SW,214,0.0,0.0,78,0.00,,BKN085,0.01,VWS V14.01,2013-02-24 02:41:00,
2013-02-23 21:46:00,75.7,68.4,29.96,SW,214,0.0,1.0,78,0.00,,BKN085,0.01,VWS V14.01,2013-02-24 02:46:00,
2013-02-23 21:51:00,75.6,68.6,29.96,SW,214,0.0,1.0,79,0.00,,BKN085,0.01,VWS V14.01,2013-02-24 02:51:00,
2013-02-23 21:56:00,75.4,68.4,29.96,SSW,213,0.0,1.0,79,0.00,,BKN085,0.01,VWS V14.01,2013-02-24 02:56:00,
2013-02-23 22:01:00,75.3,68.3,29.95,SSW,213,0.0,0.0,79,0.00,,FEW080,0.01,VWS V14.01,2013-02-24 03:01:00,
2013-02-23 22:06:00,75.1,68.2,29.96,SW,215,0.0,1.0,79,0.00,,FEW080,0.01,VWS V14.01,2013-02-24 03:06:00,
2013-02-23 22:11:00,75.0,68.1,29.95,SW,215,0.0,1.0,79,0.00,,FEW080,0.01,VWS V14.01,2013-02-24 03:11:00,
2013-02-23 22:16:00,74.8,67.9,29.96,SW,216,0.0,1.0,79,0.00,,FEW080,0.01,VWS V14.01,2013-02-24 03:16:00,
2013-02-23 22:21:00,74.7,68.1,29.96,SW,216,0.0,3.0,80,0.00,,FEW080,0.01,VWS V14.01,2013-02-24 03:21:00,
2013-02-23 22:26:00,74.5,67.9,29.96,SW,216,0.0,3.0,80,0.00,,FEW080,0.01,VWS V14.01,2013-02-24 03:26:00,
2013-02-23 22:31:00,74.3,67.7,29.97,WSW,244,6.0,6.0,80,0.00,,FEW080,0.01,VWS V14.01,2013-02-24 03:31:00,
2013-02-23 22:36:00,74.2,68.0,29.96,WSW,244,2.0,6.0,81,0.00,,FEW080,0.01,VWS V14.01,2013-02-24 03:36:00,
2013-02-23 22:41:00,74.0,67.8,29.96,WSW,244,2.0,6.0,81,0.00,,FEW080,0.01,VWS V14.01,2013-02-24 03:41:00,
2013-02-23 22:46:00,73.8,68.0,29.97,WSW,257,3.0,6.0,82,0.00,,FEW080,0.01,VWS V14.01,2013-02-24 03:46:00,
2013-02-23 22:51:00,73.6,67.8,29.97,West,259,2.0,6.0,82,0.00,,FEW080,0.01,VWS V14.01,2013-02-24 03:51:00,
2013-02-23 22:56:00,73.4,67.9,29.96,WSW,242,3.0,6.0,83,0.00,,FEW080,0.01,VWS V14.01,2013-02-24 03:56:00,
2013-02-23 23:01:00,73.2,67.7,29.97,WSW,250,2.0,5.0,83,0.00,,CLR,0.01,VWS V14.01,2013-02-24 04:01:00,
2013-02-23 23:06:00,73.1,67.6,29.97,WSW,241,4.0,6.0,83,0.00,,CLR,0.01,VWS V14.01,2013-02-24 04:06:00,
2013-02-23 23:11:00,73.0,67.9,29.96,SW,221,3.0,6.0,84,0.00,,CLR,0.01,VWS V14.01,2013-02-24 04:11:00,
2013-02-23 23:16:00,72.9,68.1,29.96,SW,236,0.0,6.0,85,0.00,,CLR,0.01,VWS V14.01,2013-02-24 04:16:00,
2013-02-23 23:21:00,72.8,68.0,29.96,SW,228,4.0,6.0,85,0.00,,CLR,0.01,VWS V14.01,2013-02-24 04:21:00,
2013-02-23 23:26:00,72.6,68.2,29.96,SW,229,0.0,6.0,86,0.00,,CLR,0.01,VWS V14.01,2013-02-24 04:26:00,
2013-02-23 23:31:00,72.5,68.1,29.96,SW,236,2.0,6.0,86,0.00,,CLR,0.01,VWS V14.01,2013-02-24 04:31:00,
2013-02-23 23:36:00,72.4,68.0,29.96,SW,236,0.0,6.0,86,0.00,,CLR,0.01,VWS V14.01,2013-02-24 04:36:00,
2013-02-23 23:41:00,72.3,67.9,29.95,SW,235,0.0,6.0,86,0.00,,CLR,0.01,VWS V14.01,2013-02-24 04:41:00,
2013-02-23 23:46:00,72.2,68.1,29.96,SW,236,0.0,6.0,87,0.00,,CLR,0.01,VWS V14.01,2013-02-24 04:46:00,
2013-02-23 23:51:00,72.1,68.0,29.96,SW,236,0.0,6.0,87,0.00,,CLR,0.01,VWS V14.01,2013-02-24 04:51:00,
2013-02-23 23:56:00,72.1,68.0,29.97,SW,236,0.0,6.0,87,0.00,,CLR,0.01,VWS V14.01,2013-02-24 04:56:00,